Bluefield, WV

2:38 PM EST on January 17, 2017 (GMT -0500)
Mercer County

Weather History for KBLF - April, 2014

Change the Weather History Date:

Saturday, April 5, 2014

  Actual Average Record
Temperature  
Mean Temperature 46 °F 52 °F  
Max Temperature 54 °F 61 °F 81 °F (2010)
Min Temperature 38 °F 42 °F 23 °F (1975)
Degree Days  
Heating Degree Days 19 14  
Month to date heating degree days 26 72  
Since 1 July heating degree days 4363 4181  
Cooling Degree Days 0 1  
Month to date cooling degree days 5 3  
Year to date cooling degree days 5 7  
Moisture  
Dew Point 29 °F    
Average Humidity 52    
Maximum Humidity 71    
Minimum Humidity 32    
Precipitation  
Precipitation 0.00 in 0.10 in 0.90 in (2008)
Month to date precipitation 0.68 0.52  
Year to date precipitation 6.77 9.69  
Snow  
Snow 0.00 in - - ()
Month to date snowfall 0.0  
Since 1 July snowfall 46.6  
Snow Depth 0.00 in    
Sea Level Pressure  
Sea Level Pressure 30.02 in    
Wind  
Wind Speed 9 mph (NW)    
Max Wind Speed 21 mph    
Max Gust Speed 30 mph    
Visibility 10 miles    
Events      
T = Trace of Precipitation, MM = Missing Value Source: NWS Daily Summary

Daily Weather History Graph

Daily Weather History Graph

Search for Another Location

Airport or City:

Trip Planner

Search our weather history database for the weather conditions in past years. The results will help you decide how hot, cold, wet, or windy it might be!

Date:

Astronomy

Apr. 05, 2014 Rise Set
Actual Time 7:04 AM EDT 7:51 PM EDT
Civil Twilight 6:38 AM EDT 8:17 PM EDT
Nautical Twilight 6:06 AM EDT 8:48 PM EDT
Astronomical Twilight 5:34 AM EDT 9:21 PM EDT
Moon 11:15 AM EDT (4/5) 12:55 AM EDT (4/5)
Length of Visible Light 13h 39m
Length of Day
12h 46m
Waxing Crescent, 34% of the Moon is Illuminated
Apr 5
Waxing Crescent
Apr 7
First Quarter
Apr 15
Full
Apr 22
Last Quarter
Apr 29
New

Hourly Weather History & Observations

Time (EDT) Temp. Windchill Dew Point Humidity Pressure Visibility Wind Dir Wind Speed Gust Speed Precip Events Conditions
12:52 AM 52.0 °F - 42.1 °F 69% 29.86 in 10.0 mi WNW 10.4 mph 23.0 mph N/A   Mostly Cloudy
1:52 AM 48.9 °F - 39.0 °F 69% 29.87 in 10.0 mi West 19.6 mph 29.9 mph N/A   Overcast
2:52 AM 46.0 °F 39.3 °F 36.0 °F 68% 29.88 in 10.0 mi NW 16.1 mph 26.5 mph N/A   Overcast
3:44 AM 43.0 °F 36.8 °F 32.0 °F 65% 29.94 in 10.0 mi WNW 11.5 mph 21.9 mph N/A   Scattered Clouds
3:52 AM 43.0 °F 36.8 °F 32.0 °F 65% 29.90 in 10.0 mi West 11.5 mph 21.9 mph N/A   Partly Cloudy
4:52 AM 41.0 °F 33.1 °F 30.9 °F 67% 29.92 in 10.0 mi WNW 15.0 mph 24.2 mph N/A   Mostly Cloudy
5:52 AM 41.0 °F 34.7 °F 28.9 °F 62% 29.94 in 10.0 mi West 10.4 mph - N/A   Overcast
6:52 AM 39.0 °F 32.3 °F 28.0 °F 65% 29.96 in 10.0 mi NW 10.4 mph - N/A   Overcast
7:10 AM 37.9 °F 31.5 °F 27.0 °F 65% 30.00 in 10.0 mi NW 9.2 mph - N/A   Overcast
7:52 AM 37.9 °F 31.5 °F 26.1 °F 62% 29.99 in 10.0 mi WNW 9.2 mph - N/A   Overcast
8:16 AM 39.0 °F 32.3 °F 26.1 °F 60% 30.02 in 10.0 mi WNW 10.4 mph 19.6 mph N/A   Overcast
8:52 AM 39.0 °F 32.8 °F 27.0 °F 62% 30.00 in 10.0 mi WNW 9.2 mph 20.7 mph N/A   Overcast
9:52 AM 39.0 °F 32.8 °F 27.0 °F 62% 30.02 in 10.0 mi NW 9.2 mph 17.3 mph N/A   Overcast
10:52 AM 41.0 °F 34.7 °F 28.0 °F 60% 30.04 in 10.0 mi WNW 10.4 mph 17.3 mph N/A   Overcast
11:52 AM 42.1 °F 35.7 °F 26.1 °F 53% 30.05 in 10.0 mi NW 11.5 mph 23.0 mph N/A   Overcast
12:19 PM 45.0 °F 40.1 °F 27.0 °F 49% 30.07 in 10.0 mi NW 9.2 mph 16.1 mph N/A   Scattered Clouds
12:52 PM 45.0 °F 39.3 °F 28.0 °F 52% 30.05 in 10.0 mi West 11.5 mph 16.1 mph N/A   Mostly Cloudy
1:52 PM 48.9 °F - 28.0 °F 44% 30.05 in 10.0 mi North - - N/A   Scattered Clouds
2:52 PM 50.0 °F - 27.0 °F 41% 30.06 in 10.0 mi NW 5.8 mph - N/A   Clear
3:52 PM 52.0 °F - 27.0 °F 38% 30.04 in 10.0 mi North 9.2 mph - N/A   Clear
4:52 PM 53.1 °F - 28.0 °F 38% 30.04 in 10.0 mi WNW 9.2 mph - N/A   Clear
5:52 PM 54.0 °F - 25.0 °F 33% 30.05 in 10.0 mi NW 6.9 mph - N/A   Clear
6:52 PM 52.0 °F - 25.0 °F 35% 30.07 in 10.0 mi Variable 5.8 mph - N/A   Clear
7:52 PM 48.9 °F - 25.0 °F 39% 30.09 in 10.0 mi NNW 3.5 mph - N/A   Clear
8:52 PM 46.9 °F - 25.0 °F 42% 30.11 in 10.0 mi Variable 3.5 mph - N/A   Clear
9:52 PM 44.1 °F 41.5 °F 26.1 °F 49% 30.13 in 10.0 mi NNE 4.6 mph - N/A   Clear
10:52 PM 42.1 °F 40.2 °F 25.0 °F 51% 30.14 in 10.0 mi ENE 3.5 mph - N/A   Clear
11:52 PM 41.0 °F 39.0 °F 26.1 °F 55% 30.14 in 10.0 mi East 3.5 mph - N/A   Clear